Location: Bremen
(53.0796°N, 8.8241°E)
Time: 12:25:04
(UTC+01:00)

ISS - Pass Details

Date: 12 November 2017
Orbit: 401 x 407 km, 51.6° (Epoch: 25 November)

Event Time Altitude Azimuth Distance (km) Brightness Sun altitude
Exits shadow 05:52:57 37° 236° (SW) 646 -3.2 -16.5°
Maximum altitude 05:53:39 44° 199° (SSW) 571 -3.2 -16.4°
Drops below altitude 10° 05:56:46 10° 126° (SE) 1,453 0.0 -15.9°
Sets 05:58:53 0° 119° (ESE) 2,311 1.4 -15.6°
